When you browse on this site, cookies collect data to enhance your experience and personalize the content and advertising you see.
Visit our Privacy Policy to learn more. By continuing to use the site, you agree to this use of cookies and data.
  • In France
  • List of Countries
  • For 7 days
  • Water Temperature
  • Satellite Maps
  • Weather Map
  • Weather Widgets
  • user-avatar
    Login

    Hourly Weather Burrel

    Today, 16 July, Tuesday

    Time Temperature Precipitation Wind Pressure Humidity
    00:00 +18°C° 0 mm 2 mps 728 mmHg 80%
    01:00 +18°C° 0 mm 2 mps 728 mmHg 81%
    02:00 +18°C° 0 mm 2 mps 728 mmHg 81%
    03:00 +18°C° 0 mm 2 mps 728 mmHg 81%
    04:00 +17°C° 0 mm 2 mps 727 mmHg 81%
    05:00 +18°C° 0 mm 2 mps 727 mmHg 79%
    06:00 +19°C° 0 mm 2 mps 727 mmHg 77%
    07:00 +20°C° 0 mm 2 mps 728 mmHg 76%
    08:00 +21°C° 0.1 mm 2 mps 728 mmHg 72%
    09:00 +23°C° 0.1 mm 2 mps 728 mmHg 68%
    10:00 +24°C° 0.1 mm 3 mps 728 mmHg 65%
    11:00 +23°C° 0.3 mm 2 mps 728 mmHg 67%
    12:00 +23°C° 0.3 mm 2 mps 728 mmHg 69%
    13:00 +23°C° 0.3 mm 2 mps 728 mmHg 71%
    14:00 +23°C° 0.1 mm 2 mps 728 mmHg 71%
    15:00 +23°C° 0.1 mm 1 mps 728 mmHg 70%
    16:00 +23°C° 0.1 mm 1 mps 728 mmHg 69%
    17:00 +22°C° 0.2 mm 1 mps 728 mmHg 74%
    18:00 +21°C° 0.2 mm 1 mps 728 mmHg 78%
    19:00 +20°C° 0.2 mm 1 mps 728 mmHg 82%
    20:00 +19°C° 0 mm 1 mps 728 mmHg 81%
    21:00 +18°C° 0 mm 2 mps 728 mmHg 80%
    22:00 +17°C° 0 mm 2 mps 729 mmHg 78%
    23:00 +16°C° 0 mm 2 mps 729 mmHg 79%

    Tomorrow, 17 July, Wednesday

    Time Temperature Precipitation Wind Pressure Humidity
    00:00 +16°C° 0 mm 2 mps 729 mmHg 79%
    01:00 +16°C° 0 mm 2 mps 729 mmHg 79%
    02:00 +14°C° 0 mm 3 mps 728 mmHg 80%
    03:00 +14°C° 0 mm 3 mps 728 mmHg 80%
    04:00 +14°C° 0 mm 3 mps 728 mmHg 80%
    05:00 +17°C° 0 mm 3 mps 729 mmHg 75%
    06:00 +18°C° 0 mm 3 mps 729 mmHg 71%
    07:00 +20°C° 0 mm 3 mps 729 mmHg 66%
    08:00 +22°C° 0 mm 3 mps 729 mmHg 60%
    09:00 +24°C° 0 mm 3 mps 730 mmHg 54%
    10:00 +26°C° 0 mm 3 mps 730 mmHg 48%
    11:00 +27°C° 0 mm 2 mps 730 mmHg 46%
    12:00 +28°C° 0 mm 2 mps 729 mmHg 44%
    13:00 +29°C° 0 mm 2 mps 729 mmHg 41%
    14:00 +28°C° 0 mm 2 mps 729 mmHg 42%
    15:00 +28°C° 0 mm 2 mps 729 mmHg 43%
    16:00 +28°C° 0 mm 2 mps 729 mmHg 44%
    17:00 +26°C° 0 mm 2 mps 729 mmHg 52%
    18:00 +24°C° 0 mm 1 mps 729 mmHg 59%
    19:00 +22°C° 0 mm 1 mps 729 mmHg 67%
    20:00 +22°C° 0 mm 1 mps 729 mmHg 67%
    21:00 +20°C° 0 mm 2 mps 729 mmHg 66%
    22:00 +19°C° 0 mm 2 mps 730 mmHg 66%
    23:00 +19°C° 0 mm 2 mps 730 mmHg 66%

    Day after tomorrow, 18 July, Thursday

    Time Temperature Precipitation Wind Pressure Humidity
    00:00 +18°C° 0 mm 2 mps 730 mmHg 67%
    01:00 +18°C° 0 mm 2 mps 730 mmHg 67%
    02:00 +18°C° 0 mm 2 mps 730 mmHg 67%
    03:00 +18°C° 0 mm 2 mps 729 mmHg 68%
    04:00 +17°C° 0 mm 2 mps 729 mmHg 68%
    05:00 +20°C° 0 mm 1 mps 729 mmHg 66%
    06:00 +22°C° 0 mm 1 mps 729 mmHg 63%
    07:00 +24°C° 0 mm 1 mps 730 mmHg 60%
    08:00 +26°C° 0 mm 1 mps 730 mmHg 55%
    09:00 +27°C° 0 mm 1 mps 730 mmHg 50%
    10:00 +29°C° 0 mm 1 mps 730 mmHg 45%
    11:00 +29°C° 0 mm 1 mps 730 mmHg 44%
    12:00 +30°C° 0 mm 1 mps 730 mmHg 43%
    13:00 +30°C° 0 mm 2 mps 730 mmHg 42%
    14:00 +29°C° 0.1 mm 2 mps 730 mmHg 45%
    15:00 +29°C° 0.1 mm 2 mps 730 mmHg 48%
    16:00 +29°C° 0.1 mm 2 mps 730 mmHg 50%
    17:00 +27°C° 0.3 mm 1 mps 730 mmHg 59%
    18:00 +24°C° 0.3 mm 1 mps 730 mmHg 68%
    19:00 +20°C° 0.3 mm 0 mps 730 mmHg 76%
    20:00 +20°C° 0 mm 0 mps 730 mmHg 76%
    21:00 +21°C° 0 mm 1 mps 731 mmHg 76%
    22:00 +21°C° 0 mm 1 mps 731 mmHg 76%
    23:00 +21°C° 0 mm 1 mps 731 mmHg 76%

    19 July, Friday

    Time Temperature Precipitation Wind Pressure Humidity
    00:00 +20°C° 0 mm 1 mps 731 mmHg 76%
    01:00 +20°C° 0 mm 1 mps 731 mmHg 77%
    02:00 +20°C° 0 mm 1 mps 731 mmHg 77%
    03:00 +19°C° 0 mm 1 mps 731 mmHg 77%
    04:00 +19°C° 0 mm 1 mps 731 mmHg 77%
    05:00 +21°C° 0 mm 1 mps 731 mmHg 73%
    06:00 +21°C° 0 mm 0 mps 731 mmHg 68%
    07:00 +23°C° 0 mm 0 mps 732 mmHg 63%
    08:00 +24°C° 0 mm 0 mps 732 mmHg 58%
    09:00 +28°C° 0 mm 1 mps 732 mmHg 53%
    10:00 +29°C° 0 mm 1 mps 732 mmHg 47%
    11:00 +30°C° 0.1 mm 1 mps 732 mmHg 46%
    12:00 +30°C° 0.1 mm 2 mps 732 mmHg 45%
    13:00 +30°C° 0.1 mm 2 mps 732 mmHg 44%
    14:00 +30°C° 0.1 mm 2 mps 732 mmHg 46%
    15:00 +29°C° 0.1 mm 2 mps 732 mmHg 48%
    16:00 +29°C° 0.1 mm 2 mps 732 mmHg 50%
    17:00 +27°C° 0 mm 1 mps 732 mmHg 58%
    18:00 +25°C° 0 mm 1 mps 732 mmHg 66%
    19:00 +21°C° 0 mm 0 mps 732 mmHg 74%
    20:00 +20°C° 0 mm 0 mps 732 mmHg 74%
    21:00 +22°C° 0 mm 1 mps 733 mmHg 74%
    22:00 +21°C° 0 mm 1 mps 733 mmHg 74%
    23:00 +21°C° 0 mm 1 mps 733 mmHg 74%

    20 July, Saturday

    Time Temperature Precipitation Wind Pressure Humidity
    00:00 +21°C° 0 mm 1 mps 733 mmHg 74%
    01:00 +20°C° 0 mm 1 mps 733 mmHg 74%
    02:00 +20°C° 0 mm 1 mps 733 mmHg 74%
    03:00 +20°C° 0 mm 1 mps 733 mmHg 73%
    04:00 +20°C° 0 mm 1 mps 733 mmHg 73%
    05:00 +22°C° 0 mm 1 mps 734 mmHg 69%
    06:00 +24°C° 0 mm 1 mps 734 mmHg 65%
    07:00 +26°C° 0 mm 1 mps 734 mmHg 61%
    08:00 +27°C° 0 mm 1 mps 735 mmHg 56%
    09:00 +29°C° 0 mm 1 mps 735 mmHg 51%
    10:00 +31°C° 0 mm 1 mps 735 mmHg 46%
    11:00 +31°C° 0 mm 1 mps 735 mmHg 44%
    12:00 +32°C° 0 mm 1 mps 735 mmHg 43%
    13:00 +32°C° 0 mm 1 mps 735 mmHg 41%
    14:00 +32°C° 0 mm 1 mps 735 mmHg 44%
    15:00 +31°C° 0 mm 1 mps 734 mmHg 47%
    16:00 +31°C° 0 mm 2 mps 734 mmHg 51%
    17:00 +29°C° 0.1 mm 1 mps 734 mmHg 58%
    18:00 +27°C° 0.1 mm 1 mps 734 mmHg 64%
    19:00 +23°C° 0.1 mm 0 mps 734 mmHg 71%
    20:00 +22°C° 0 mm 0 mps 735 mmHg 71%
    21:00 +24°C° 0 mm 1 mps 735 mmHg 71%
    22:00 +23°C° 0 mm 1 mps 735 mmHg 71%
    23:00 +23°C° 0 mm 1 mps 735 mmHg 71%

    21 July, Sunday

    Time Temperature Precipitation Wind Pressure Humidity
    00:00 +23°C° 0 mm 1 mps 735 mmHg 70%
    01:00 +23°C° 0 mm 1 mps 735 mmHg 69%
    02:00 +22°C° 0 mm 1 mps 735 mmHg 69%
    03:00 +22°C° 0 mm 1 mps 734 mmHg 68%
    04:00 +21°C° 0 mm 2 mps 734 mmHg 67%
    05:00 +24°C° 0 mm 1 mps 735 mmHg 65%
    06:00 +26°C° 0 mm 1 mps 735 mmHg 62%
    07:00 +27°C° 0 mm 1 mps 735 mmHg 59%
    08:00 +29°C° 0 mm 1 mps 735 mmHg 54%
    09:00 +31°C° 0 mm 1 mps 735 mmHg 48%
    10:00 +31°C° 0 mm 0 mps 735 mmHg 43%
    11:00 +33°C° 0 mm 1 mps 735 mmHg 41%
    12:00 +34°C° 0 mm 1 mps 735 mmHg 40%
    13:00 +34°C° 0 mm 1 mps 735 mmHg 39%
    14:00 +33°C° 0 mm 1 mps 735 mmHg 42%
    15:00 +33°C° 0 mm 1 mps 734 mmHg 44%
    16:00 +32°C° 0 mm 2 mps 734 mmHg 47%
    17:00 +30°C° 0.1 mm 1 mps 734 mmHg 54%
    18:00 +28°C° 0.1 mm 1 mps 734 mmHg 61%
    19:00 +24°C° 0.1 mm 0 mps 734 mmHg 69%
    20:00 +23°C° 0 mm 0 mps 734 mmHg 68%
    21:00 +25°C° 0 mm 1 mps 734 mmHg 68%
    22:00 +25°C° 0 mm 1 mps 735 mmHg 67%
    23:00 +24°C° 0 mm 1 mps 735 mmHg 67%
    Show more